{"data":{"norad_id":34661,"intl_designator":"2009-014A","name":"NAVSTAR 63 (USA 203)","alt_names":[],"object_type":"PAYLOAD","status":"ACTIVE","operator":null,"country":"US","launch_date":"2009-03-24","launch_site_code":"AFETR","launch_vehicle":null,"mission":null,"orbit_class":"UNKNOWN","rcs_meters":1.9953,"size_class":null,"mass_kg":null,"dimensions":null,"purposes":[],"wikipedia_slug":null,"has_3d_model":false,"image_url":null,"decayed_at":null,"tle_current":{"epoch":"2026-05-23T05:37:34.014144Z","epoch_age_seconds":227921,"freshness":"STALE","line1":"1 34661U 09014A   26143.23442146 -.00000012  00000+0  00000+0 0  9998","line2":"2 34661  54.4863 211.6557 0144216  61.5748  18.4350  2.00553310125781","mean_motion":2.0055331,"eccentricity":0.0144216,"inclination_deg":54.4863,"raan_deg":211.6557,"arg_perigee_deg":61.5748,"mean_anomaly_deg":18.435,"bstar":0,"rev_number":12578,"period_min":718.01357953155,"perigee_km":19800.063850251,"apogee_km":20566.175488619,"semimajor_km":26561.256669435,"source":"CELESTRAK","updated_at":"2026-05-25T13:37:55.156136Z"}}}